Location: Ostrava
(49.8330°N, 18.2830°E)
Time: 02:47:01
(UTC+02:00)

NOAA 19 - Visible Passes

Search period start: 25 April 2018 00:00
Search period end: 05 May 2018 00:00
Orbit: 841 x 862 km, 99.1° (Epoch: 24 April)

Date Brightness Start Highest point End Pass type
(mag) Time Alt. Az. Time Alt. Az. Time Alt. Az.
25 Apr 6.9 04:21:48 10° NNE 04:26:41 32° E 04:31:31 10° SSE visible
26 Apr 7.3 04:10:27 10° NE 04:14:59 26° E 04:19:31 10° SSE visible
27 Apr 7.5 03:59:10 10° NE 04:03:17 21° E 04:07:22 10° SE visible
28 Apr 7.7 03:48:01 10° NE 03:51:34 17° E 03:55:05 10° SE visible
29 Apr 7.9 03:37:04 10° NE 03:39:48 14° E 03:42:31 10° ESE visible
30 Apr 8.1 03:26:43 10° ENE 03:28:01 11° E 03:29:19 10° E visible
02 May 6.4 04:41:15 10° NNE 04:46:30 44° E 04:51:42 10° S visible
03 May 6.8 04:29:48 10° NNE 04:34:50 36° E 04:39:51 10° SSE visible
04 May 7.1 04:18:24 10° NE 04:23:09 29° E 04:27:54 10° SSE visible
